N2500A SIAQ-SBCY

Flight info

Callsign N2500A
Flight time 0h -8m
Altitude 4000
Route 1525S05601W DCT UBDON
Aircraft C208/L-SDFGR/C

Departure

Time 2026-05-08 19:24
Airport Bom Futuro Airport (SIAQ)

Arrival

Time 2026-05-08 19:16
Airport Várzea Grande–Marechal Rondon International Airport (SBCY)
Time Latitude Longitude Altitude Speed Heading
2026-05-08 19:16 -15.50905 -56.09849 756 ft 0 kts 18°
2026-05-08 19:20 -15.50896 -56.09843 751 ft 5 kts 36°
2026-05-08 19:20 -15.50869 -56.09793 755 ft 12 kts 116°
2026-05-08 19:21 -15.50967 -56.09738 755 ft 20 kts 156°
2026-05-08 19:21 -15.51102 -56.09675 756 ft 20 kts 158°
2026-05-08 19:21 -15.51222 -56.09620 755 ft 18 kts 156°
2026-05-08 19:21 -15.51317 -56.09561 756 ft 9 kts 122°
2026-05-08 19:22 -15.51315 -56.09516 755 ft 3 kts 349°
2026-05-08 19:22 -15.51312 -56.09517 755 ft 0 kts 338°
2026-05-08 19:22 -15.51181 -56.09576 754 ft 42 kts 337°
2026-05-08 19:23 -15.50798 -56.09753 762 ft 75 kts 334°
2026-05-08 19:23 -15.50320 -56.09981 935 ft 75 kts 336°
2026-05-08 19:23 -15.49834 -56.10214 1096 ft 77 kts 339°
2026-05-08 19:23 -15.49372 -56.10597 1191 ft 96 kts 306°
2026-05-08 19:24 -15.49379 -56.11301 1318 ft 107 kts 247°
2026-05-08 19:24 -15.49993 -56.11676 1500 ft 113 kts 172°
2026-05-08 19:24 -15.50727 -56.11501 1759 ft 105 kts 168°
2026-05-08 19:24 -15.51454 -56.11333 1901 ft 113 kts 167°
2026-05-08 19:25 -15.52295 -56.11140 1934 ft 135 kts 166°
2026-05-08 19:25 -15.53228 -56.10779 1931 ft 153 kts 146°
2026-05-08 19:25 -15.54261 -56.10345 1915 ft 169 kts 174°
2026-05-08 19:25 -15.55444 -56.10428 1919 ft 173 kts 190°
2026-05-08 19:26 -15.56653 -56.10620 1911 ft 177 kts 189°
2026-05-08 19:26 -15.57873 -56.10780 1903 ft 180 kts 188°
2026-05-08 19:26 -15.59116 -56.10947 1903 ft 181 kts 188°
2026-05-08 19:26 -15.60349 -56.11116 1902 ft 176 kts 188°
2026-05-08 19:27 -15.61557 -56.11274 1897 ft 173 kts 191°
2026-05-08 19:27 -15.62755 -56.11426 1905 ft 175 kts 190°
2026-05-08 19:27 -15.63980 -56.11597 1905 ft 180 kts 189°
2026-05-08 19:27 -15.65213 -56.11766 1902 ft 178 kts 190°
2026-05-08 19:28 -15.66426 -56.11925 1907 ft 177 kts 190°
2026-05-08 19:28 -15.67640 -56.12031 1786 ft 167 kts 175°
2026-05-08 19:28 -15.68564 -56.11559 1726 ft 136 kts 112°
2026-05-08 19:28 -15.68343 -56.10963 1739 ft 89 kts 345°
2026-05-08 19:29 -15.67778 -56.11304 1665 ft 99 kts 328°
2026-05-08 19:29 -15.67199 -56.11699 1652 ft 99 kts 321°
2026-05-08 19:29 -15.66867 -56.12330 1592 ft 108 kts 279°
2026-05-08 19:29 -15.67183 -56.13087 1611 ft 127 kts 226°
2026-05-08 19:30 -15.67972 -56.13328 1807 ft 117 kts 171°
2026-05-08 19:30 -15.68478 -56.13146 1785 ft 118 kts 146°
2026-05-08 19:30 -15.68917 -56.12459 1700 ft 117 kts 92°
2026-05-08 19:30 -15.68974 -56.11610 1593 ft 119 kts 90°
2026-05-08 19:31 -15.68501 -56.10711 1304 ft 118 kts 24°
2026-05-08 19:31 -15.67671 -56.10540 1016 ft 126 kts 349°
2026-05-08 19:31 -15.66826 -56.10855 773 ft 132 kts 330°
2026-05-08 19:31 -15.66299 -56.11130 640 ft 122 kts 332°
2026-05-08 19:32 -15.65610 -56.11501 600 ft 92 kts 333°
2026-05-08 19:32 -15.65257 -56.11691 601 ft 38 kts 331°
2026-05-08 19:32 -15.65216 -56.11791 603 ft 2 kts 238°
2026-05-08 19:32 -15.65226 -56.11807 603 ft 6 kts 230°
2026-05-08 19:33 -15.65298 -56.11795 603 ft 16 kts 159°
2026-05-08 19:33 -15.65403 -56.11745 603 ft 9 kts 176°
2026-05-08 19:33 -15.65424 -56.11782 603 ft 4 kts 247°
2026-05-08 19:33 -15.65425 -56.11783 603 ft 0 kts 248°
2026-05-08 19:34 -15.65426 -56.11788 603 ft 2 kts 271°
2026-05-08 19:34 -15.65413 -56.11797 603 ft 3 kts 334°
2026-05-08 19:34 -15.65405 -56.11802 603 ft 0 kts 331°